Вернуться в каталог

STARLINK-34553

АктивенСвязьVLEO
NORAD 64681·PAYLOAD·🇺🇸 United States

Запущен Jun 28, 2025 с Cape Canaveral Space Force Station

Loading…

Ближайшие Пролёты (ближайшие 24 часа)

TLE

СвежийSource: CelesTrak SupGP

Эпоха: Sep 14, 2026, 20:46 UTC

1 64681C 25139T   26257.86576389 -.00015760  00000+0 -46576-3 0  2577
2 64681  53.1578 323.8053 0001225  87.1738 201.2439 15.34389873    17

Отслеживайте STARLINK-34553 в реальном времени с AllMySat

Download on the App Store